Location: Unspecified
(52.4292°N, 19.3359°E)
Time: 00:42:56
(UTC+02:00)

SR - Pass Details

Date: 02 June 2024
Orbit: 580 x 858 km, 66.7° (Epoch: 12 June)

Event Time Altitude Azimuth Distance (km) Brightness Sun altitude
Rises 14:41:29 0° 169° (SSE) 3,190 ? 52.0°
Reaches altitude 10° 14:44:40 10° 150° (SSE) 2,213 ? 51.7°
Maximum altitude 14:47:51 17° 110° (ESE) 1,729 ? 51.3°
Drops below altitude 10° 14:50:54 10° 70° (ENE) 2,106 ? 50.9°
Sets 14:53:49 0° 51° (NE) 2,971 ? 50.6°
